Tsalka

Georgia     41˚35′49″N   44˚05′27″E
temp.,
°C
wind,
m/s
gust,
m/s
humid.,
%
clouds,
%
prec.,
mm/h
press.,
hPa
HPBL,
m
28 november, sat
sat2801:00−7˚s228641 0.0 103448
04:00−7˚s228043 0.1 103332
07:00−8˚s227035 0.0 103328
10:00−6˚s227034 0.0 103150
13:00−2˚sse237630 0.0 1028139
16:00−4˚sse228027 0.0 102749
19:00−7˚ssw226532 0.0 102922
22:00−7˚ssw226623 0.0 103022
29 november, sun
sun2901:00−7˚ssw226429 0.0 102921
04:00−7˚sw226423 0.0 102921
07:00−6˚sw12624 0.0 102821
10:00−3˚ssw11697 0.0 102728
13:00ese118050 0.0 1024102
16:00−1˚sse018067 0.0 102336
19:00−4˚wsw1275100 0.0 102421
22:00−5˚sw1167100 0.0 102521
30 november, mon
mon3001:00−6˚ssw1173100 0.0 102521
04:00−5˚wsw1190100 0.0 102526
07:00−4˚ssw1194100 0.1 102423
10:00−3˚s118991 0.1 102439
13:00−1˚ese229735 0.0 1021195
16:00−2˚ese229861 0.0 1020174
19:00−4˚s229156 0.0 102244
22:00−4˚s238851 0.0 102350
1 december, tue
tue101:00−6˚ssw238942 0.0 102348
04:00−5˚ssw239044 0.1 102337
07:00−5˚ssw228980 0.0 102328
10:00−4˚ssw228891 0.1 102385
13:00−1˚sse2293100 0.0 1021211
16:00−2˚s129399 0.0 102170
19:00−5˚sw2280100 0.0 102325
22:00−5˚sw2274100 0.0 102426
2 december, wed
wed201:00−6˚sw227685 0.0 102527
04:00−6˚sw227958 0.0 102526
07:00−5˚wsw23790 0.0 102526
10:00−2˚sw22790 0.0 102430
13:00s11920 0.0 102298
16:00−1˚s11887 0.0 102144
19:00−4˚wsw22800 0.0 102321
22:00−4˚sw22750 0.0 102521